This is the latest recevied weather packets stored in our database for station/object KI5NXU. If no packets are shown the sender has not sent any weather packets the latest 10 day(s).
| Time | Temp. | Humidity | Pressure | Rain* | Wind** | Luminosity | Snow |
|---|---|---|---|---|---|---|---|
| 1787889343 | 30° C | 46% | 1016.4 hPa | 0 mm | - | 0 W/m² | - |
| 1787889043 | 30° C | 46% | 1016.2 hPa | 0 mm | - | 0 W/m² | - |
| 1787888743 | 29.44° C | 47% | 1016.3 hPa | 0 mm | - | 0 W/m² | - |
| 1787888438 | 29.44° C | 47% | 1016.2 hPa | 0 mm | - | 0 W/m² | - |
| 1787888138 | 29.44° C | 47% | 1016.1 hPa | 0 mm | - | 0 W/m² | - |
| 1787887834 | 30° C | 47% | 1016.2 hPa | 0 mm | - | 0 W/m² | - |
| 1787887529 | 30° C | 46% | 1016.1 hPa | 0 mm | - | 0 W/m² | - |
| 1787887224 | 30.56° C | 45% | 1015.7 hPa | 0 mm | - | 0 W/m² | - |
| 1787886920 | 31.11° C | 44% | 1016.1 hPa | 0 mm | - | 0 W/m² | - |
| 1787886620 | 31.67° C | 43% | 1015.9 hPa | 0 mm | - | 0 W/m² | - |
| 1787886319 | 31.67° C | 43% | 1015.9 hPa | 0 mm | - | 0 W/m² | - |
| 1787886015 | 31.67° C | 43% | 1015.7 hPa | 0 mm | - | 0 W/m² | - |
| 1787885713 | 31.67° C | 44% | 1015.9 hPa | 0 mm | - | 0 W/m² | - |
| 1787885413 | 31.67° C | 44% | 1015.7 hPa | 0 mm | - | 0 W/m² | - |
| 1787885107 | 32.22° C | 43% | 1015.4 hPa | 0 mm | - | 0 W/m² | - |
| 1787884802 | 32.22° C | 42% | 1015.4 hPa | 0 mm | - | 0 W/m² | - |
| 1787884496 | 32.22° C | 42% | 1015.4 hPa | 0 mm | - | 0 W/m² | - |
| 1787884187 | 32.22° C | 42% | 1015.2 hPa | 0 mm | - | 0 W/m² | - |
| 1787883882 | 32.22° C | 42% | 1015.2 hPa | 0 mm | - | 0 W/m² | - |
| 1787883577 | 32.78° C | 42% | 1015.2 hPa | 0 mm | - | 0 W/m² | - |
| 1787883272 | 32.78° C | 42% | 1015 hPa | 0 mm | - | 0 W/m² | - |
| 1787882966 | 32.78° C | 41% | 1015 hPa | 0 mm | - | 0 W/m² | - |
| 1787882663 | 33.33° C | 41% | 1014.8 hPa | 0 mm | - | 0 W/m² | - |
| 1787882359 | 33.33° C | 41% | 1014.8 hPa | 0 mm | - | 0 W/m² | - |
| 1787882059 | 33.33° C | 41% | 1014.6 hPa | 0 mm | - | 0 W/m² | - |
* Rain latest hour (hover to see other rain measurements)
** Current wind speed in m/s (hover to see current wind gust speed)